Vertical_Velocity
-8 -1 -1 -1 -2 3 2 1 -0 1 -3 -3 -3 -1 -2 2 -3 -1 4 -4 -2 -3 -3 -2 -2 -2 -1 -2 -2 -0 -2 -2 -2 -2 -2 0 -2 0 0 0 0 1 -1
-4 -1 -1 2 4 0 1 3 0 -4 -2 -1 2 -0 4 1 -1 -3 -0 -3 -4 -3 -2 0 -0 -1 -2 -3 -2 -2 -0 1 -0 -1 -3 -3 -2 1 -2 0 2 1 1
-0 3 1 -3 0 -2 2 1 -0 -0 -0 -3 2 1 1 -5 0 -2 -6 -0 8 -10 -1 -2 0 -0 -0 1 2 0 -2 -1 1 0 -1 -2 -0 -1 2 2 -2 -0 3
2 1 -0 -3 -1 4 -2 5 2 -5 -0 1 -1 -0 2 1 0 -4 -2 -0 -22 6 10 -7 -5 -1 -2 -1 -0 4 1 -1 -1 -0 1 0 -1 -3 -5 -3 -1 -1 -3
-1 5 0 -2 4 -0 3 1 2 -0 -0 -2 0 1 -2 -4 2 -5 -2 -2 -4 -5 -25 11 -3 -3 -2 -1 -3 1 -3 2 1 1 -2 -2 -3 2 1 -5 -3 -4 -2
-1 1 3 -3 3 2 1 0 -2 -2 -0 -2 1 2 -3 -5 -1 -6 -2 -4 -0 -3 1 -13 -11 0 5 4 -4 2 -7 -3 -8 -6 -3 -0 2 -2 -4 -1 -2 -3 -2
3 2 -0 3 2 2 -1 -1 -3 -2 5 -1 1 -2 -1 12 -8 -6 -1 -5 -1 -1 3 -1 2 -4 -19 -1 -1 7 11 0 -10 -6 -7 -5 -7 -5 -2 -3 -5 -5 -5
-1 -0 0 0 -1 3 -0 -1 -0 -0 1 0 -6 -3 -5 -23 11 22 4 -7 4 -3 -9 -1 8 -2 5 -1 -18 -18 5 6 -3 -5 -7 -7 -7 -6 -5 -4 -2 -2 -3
-1 0 2 3 -1 2 -1 1 2 -2 -2 9 -4 -5 -7 2 -12 -33 -5 16 -6 -3 2 0 -11 -7 -5 1 -1 -17 4 -11 0 -0 -2 -4 -3 -4 -3 -3 -6 -6 -2
-0 -0 0 -0 1 0 -2 2 1 -3 -2 -5 15 -6 -5 -9 -6 0 -22 -12 13 9 -2 6 -3 -7 -5 -8 4 -0 -13 -8 -5 -4 -3 -3 -4 -7 -9 -10 -8 -9 -6
1 2 -3 0 2 -0 0 -1 1 -1 7 -4 -5 -4 7 5 2 -1 8 -18 -29 -11 -5 4 6 -5 -5 -6 -6 1 -4 -5 0 -3 -10 -10 -7 -6 -6 -8 -6 -5 -2
-1 -0 -0 5 3 -1 1 -1 1 -0 -3 -0 -1 -0 -2 -9 -4 -4 6 7 10 6 -9 -12 -3 0 -4 -6 -3 -7 -7 -15 -3 -6 -10 -4 -6 -8 -6 -3 -2 -3 -2
-0 -2 -1 0 2 2 -2 -2 1 -1 -0 -3 -3 3 1 -2 -1 2 -1 2 3 1 -4 -5 -8 -4 2 2 -4 -1 3 3 -1 4 -10 -14 -12 -3 -5 -2 -2 -1 -1
1 -1 -2 -0 4 0 -3 -1 2 -3 12 0 3 2 -9 2 -3 4 5 2 0 -1 -0 1 -2 -4 -3 -2 5 4 -10 -7 -10 -0 0 -4 -5 -4 -3 -3 -4 -4 -3
5 -0 3 -2 0 2 -2 1 1 -4 3 4 3 -3 -2 0 6 4 3 4 -4 -1 9 6 1 -1 -8 -9 1 -2 -2 -2 -6 -9 -6 -4 -7 -3 -1 -3 -3 -2 -3
2 2 2 1 2 -1 6 5 3 0 2 -2 1 -2 -1 -0 6 -0 0 2 4 4 -1 1 3 -2 -1 2 -8 1 -2 -2 -1 -1 1 0 -3 -3 -3 -2 -1 -3 -4
1 -0 -1 2 -1 -4 3 -2 -2 -2 3 3 -1 0 2 -2 1 -1 -3 -0 2 4 -4 14 -6 -1 -5 -8 -6 1 0 -7 -5 -3 -3 -3 -3 2 -3 4 -1 -3 -3
0 -1 -1 -3 13 -0 0 21 2 -3 -4 -4 6 0 4 -1 -0 3 2 4 2 -2 -5 -12 9 3 -1 1 2 -2 3 1 0 -0 -1 -0 -4 2 -4 2 -1 -1 -2
-3 -3 -1 -4 -0 -2 1 1 0 -1 -2 0 -0 1 0 -1 1 2 -2 -1 -1 -0 -2 -6 -1 3 -4 -1 -7 -3 -5 -3 -0 -2 -1 3 2 3 1 1 0 -3 1
-2 -0 -2 -1 -1 -0 -0 -2 -1 0 1 3 3 0 1 1 1 -1 -1 -1 -3 -5 -2 2 8 -3 3 3 -5 -5 -3 -3 -7 -3 -3 -0 -4 -0 -2 -1 1 0 -1
-1 -1 1 -0 -1 1 -0 1 -1 0 1 3 3 -1 0 0 1 3 -3 4 -3 -2 -5 -5 -2 -8 -2 -2 -2 -3 -8 -4 5 -4 -3 5 -7 -0 -2 -2 -1 -3 7
1 -1 -0 -1 0 1 -2 -1 -1 3 1 2 2 -1 -0 -0 1 1 5 -4 -4 3 10 6 -2 1 3 -3 2 -2 -3 -1 -1 1 -5 8 -8 1 -3 -1 -3 -0 -1
-2 1 0 1 0 1 1 -1 -2 -0 1 1 -1 0 1 1 -2 -2 -6 8 12 8 2 -2 5 11 -1 8 3 -2 0 -1 -0 4 -6 5 -5 2 -3 -1 -2 -1 2
2 1 1 1 -1 -1 -1 -2 0 1 5 5 1 1 -1 3 5 1 -2 -4 -14 -0 9 7 4 6 7 5 -1 -2 1 2 3 2 -5 1 -2 1 -2 -2 -2 1 -1
1 0 1 -2 0 -7 10 -1 1 3 3 2 1 1 -2 -3 0 -2 -12 -6 1 10 6 1 -4 -5 -2 1 7 -2 2 -4 4 2 -1 -3 2 0 -2 -2 -2 -3 1
-2 -1 -1 1 1 -1 -6 1 -1 2 0 -2 7 5 6 0 -0 2 5 6 -4 7 2 3 -0 -2 5 3 4 -1 3 1 -2 3 -3 -1 0 -6 5 -6 -2 -1 0
Height
5783 5788 5791 5794 5797 5799 5802 5804 5802 5805 5804 5804 5802 5801 5799 5796 5794 5792 5790 5788 5785 5782 5780 5777 5775 5772 5768 5764 5761 5759 5757 5754 5753 5750 5748 5747 5746 5745 5745 5744 5743 5743 5744
5783 5787 5791 5792 5793 5796 5799 5799 5801 5802 5801 5799 5796 5795 5794 5793 5791 5787 5785 5782 5780 5777 5773 5771 5768 5765 5761 5758 5755 5752 5749 5747 5745 5743 5741 5740 5738 5736 5735 5734 5733 5732 5732
5784 5786 5788 5790 5791 5795 5795 5798 5797 5797 5796 5794 5792 5792 5791 5789 5784 5781 5778 5776 5773 5769 5766 5763 5760 5756 5753 5751 5748 5745 5742 5740 5738 5736 5734 5732 5730 5728 5726 5725 5722 5721 5721
5782 5784 5787 5789 5790 5793 5792 5793 5794 5793 5790 5790 5789 5787 5785 5782 5778 5775 5771 5768 5763 5762 5759 5754 5751 5748 5744 5741 5738 5735 5732 5730 5729 5726 5724 5722 5720 5718 5716 5714 5713 5711 5708
5780 5781 5785 5786 5787 5789 5789 5790 5789 5787 5786 5785 5782 5780 5778 5774 5772 5769 5764 5761 5757 5752 5748 5747 5743 5739 5735 5732 5728 5725 5721 5719 5716 5713 5711 5708 5706 5704 5703 5701 5699 5697 5697
5778 5780 5783 5784 5785 5785 5786 5785 5784 5782 5780 5779 5776 5774 5772 5769 5765 5761 5757 5754 5750 5746 5741 5737 5733 5729 5726 5723 5719 5715 5710 5706 5701 5697 5694 5691 5688 5686 5684 5682 5681 5680 5679
5776 5778 5780 5782 5781 5782 5781 5780 5778 5777 5774 5772 5771 5768 5766 5764 5756 5752 5748 5743 5739 5736 5733 5728 5722 5715 5710 5708 5705 5703 5699 5692 5686 5682 5678 5674 5669 5664 5661 5658 5657 5656 5656
5774 5777 5777 5778 5777 5775 5775 5773 5772 5770 5768 5766 5764 5760 5756 5750 5745 5745 5742 5735 5730 5724 5719 5715 5711 5705 5700 5694 5690 5687 5684 5676 5669 5664 5658 5653 5648 5643 5639 5634 5631 5628 5627
5773 5773 5772 5772 5771 5770 5769 5767 5765 5764 5762 5761 5756 5751 5745 5740 5734 5727 5722 5721 5716 5711 5706 5700 5694 5689 5684 5680 5674 5669 5665 5657 5651 5644 5638 5632 5625 5619 5612 5605 5599 5595 5592
5769 5769 5767 5766 5764 5763 5761 5759 5758 5757 5754 5751 5748 5741 5736 5730 5724 5718 5709 5706 5703 5699 5694 5688 5681 5674 5668 5663 5657 5651 5644 5637 5630 5623 5615 5607 5597 5589 5580 5571 5564 5556 5551
5764 5764 5762 5760 5758 5756 5753 5753 5751 5748 5745 5741 5736 5731 5726 5720 5713 5707 5699 5690 5686 5682 5677 5672 5666 5658 5651 5645 5639 5635 5625 5618 5610 5599 5591 5582 5573 5562 5551 5539 5528 5520 5515
5759 5759 5755 5754 5752 5749 5747 5744 5741 5739 5736 5731 5726 5720 5713 5707 5700 5693 5688 5681 5674 5667 5660 5654 5650 5643 5635 5627 5620 5613 5604 5595 5588 5577 5568 5558 5546 5534 5521 5510 5501 5495 5491
5754 5751 5749 5746 5744 5741 5739 5735 5732 5729 5725 5720 5714 5709 5702 5694 5687 5681 5673 5666 5659 5652 5646 5637 5632 5627 5619 5609 5600 5592 5585 5573 5566 5555 5543 5532 5520 5508 5498 5488 5480 5475 5471
5746 5744 5740 5738 5735 5731 5730 5727 5723 5718 5714 5709 5704 5697 5689 5682 5675 5669 5662 5654 5646 5639 5631 5622 5612 5606 5599 5591 5580 5573 5562 5551 5543 5533 5521 5508 5497 5487 5478 5468 5462 5458 5455
5737 5735 5732 5729 5727 5724 5721 5718 5714 5710 5705 5699 5693 5686 5678 5671 5664 5657 5649 5639 5631 5625 5617 5607 5597 5587 5576 5569 5561 5551 5543 5531 5521 5509 5499 5489 5479 5471 5460 5452 5447 5443 5439
5729 5727 5725 5722 5719 5715 5712 5708 5704 5698 5692 5686 5680 5673 5667 5660 5652 5643 5635 5626 5617 5609 5602 5590 5579 5567 5558 5549 5539 5531 5520 5510 5500 5490 5481 5472 5463 5454 5445 5439 5434 5428 5424
5722 5719 5716 5713 5710 5705 5702 5697 5691 5684 5678 5674 5666 5660 5653 5645 5637 5628 5619 5610 5602 5591 5583 5576 5560 5550 5539 5529 5521 5512 5502 5492 5480 5471 5464 5457 5450 5440 5433 5427 5421 5417 5412
5714 5711 5707 5704 5700 5695 5692 5688 5680 5677 5669 5662 5651 5645 5637 5628 5620 5612 5603 5594 5585 5573 5563 5556 5548 5535 5523 5510 5501 5491 5484 5474 5465 5457 5449 5442 5435 5428 5421 5415 5410 5405 5400
5704 5700 5697 5693 5690 5686 5680 5674 5669 5663 5654 5646 5639 5632 5623 5614 5605 5596 5587 5578 5567 5557 5546 5536 5529 5516 5504 5492 5482 5473 5466 5459 5452 5444 5436 5430 5422 5417 5410 5405 5400 5394 5390
5694 5691 5686 5682 5677 5671 5666 5660 5654 5647 5640 5633 5625 5617 5608 5599 5590 5580 5570 5560 5550 5538 5528 5517 5506 5496 5485 5475 5463 5456 5451 5444 5437 5430 5422 5415 5409 5405 5399 5395 5391 5385 5380
5685 5679 5675 5669 5664 5659 5652 5646 5639 5632 5625 5618 5609 5601 5593 5584 5574 5564 5553 5543 5531 5518 5505 5494 5486 5475 5467 5457 5447 5440 5433 5429 5425 5415 5409 5403 5398 5394 5389 5384 5379 5375 5372
5674 5669 5663 5657 5651 5645 5639 5632 5625 5618 5610 5602 5594 5585 5576 5567 5557 5547 5536 5523 5512 5501 5490 5476 5465 5456 5449 5442 5435 5427 5420 5415 5411 5402 5395 5392 5386 5383 5378 5374 5369 5365 5362
5662 5657 5651 5644 5638 5632 5625 5618 5611 5603 5595 5587 5579 5570 5560 5549 5538 5527 5518 5510 5497 5483 5469 5461 5453 5444 5433 5427 5419 5413 5406 5400 5395 5390 5382 5381 5375 5373 5369 5365 5360 5357 5353
5650 5644 5638 5631 5624 5618 5610 5603 5596 5588 5580 5572 5563 5553 5543 5532 5520 5507 5496 5483 5474 5465 5455 5445 5436 5429 5420 5413 5404 5397 5392 5387 5382 5376 5370 5369 5366 5363 5360 5356 5351 5348 5344
5637 5631 5624 5617 5609 5602 5594 5586 5580 5573 5565 5556 5546 5536 5524 5513 5501 5488 5474 5463 5453 5444 5431 5417 5411 5408 5403 5398 5390 5381 5377 5371 5370 5365 5360 5358 5357 5354 5350 5347 5342 5338 5336
5623 5616 5609 5601 5593 5584 5578 5570 5561 5555 5548 5540 5530 5518 5506 5492 5480 5468 5453 5439 5427 5423 5411 5402 5392 5389 5386 5380 5375 5368 5364 5359 5356 5355 5351 5350 5347 5344 5343 5337 5334 5330 5327